Skip Page Navigation
NASA JPL Caltech
NASA Logo - Jet Propulsion Laboratory + View the NASA Portal
+ Near-Earth Object (NEO) Program
Search JPL
JPL Home Earth Solar System Stars & Galaxies Technology
JPL Solar System Dynamics
BODIES ORBITS EPHEMERIDES TOOLS PHYSICAL DATA DISCOVERY FAQ SITE MAP
JPL Small-Body Database Browser
Search: [ help ]  
15735 Andakerkhoven (1990 WF2)
Classification: Main-belt Asteroid          SPK-ID: 2015735
Ephemeris | Orbit Diagram | Orbital Elements | Physical Parameters | Discovery Circumstances ]

[ show orbit diagram ]
Orbital Elements at Epoch 2456400.5 (2013-Apr-18.0) TDB
Reference: MPO250367 (heliocentric ecliptic J2000)
 Element Value Uncertainty (1-sigma)   Units 
e 0.0690315 n/a  
a 3.1761324 n/a AU
q 2.9568792 n/a AU
i 10.48448 n/a deg
node 95.64767 n/a deg
peri 254.62692 n/a deg
M 43.15938 n/a deg
tp 2456152.6328311
(2012-Aug-13.13283110)
n/a JED
period 2067.5037683
5.66
n/a
n/a
d
yr
n 0.17412302 n/a deg/d
Q 3.3953856 n/a AU
  Orbit Determination Parameters
   # obs. used (total)      678  
   first obs. used      1988-??-??  
   last obs. used      2013-01-10  
   # oppositions      15  
   planetary ephem.      DE403  
   condition code      0  
   fit RMS      0.56  
   data source      MPC:mpn  
   producer      MPCLINUX  

Additional Information
 T_jup = 3.171 

Ephemeris | Orbit Diagram | Orbital Elements | Physical Parameters | Discovery Circumstances ]

Physical Parameter Table
Parameter Symbol Value Units Sigma Reference Notes
absolute magnitude H 13.4 mag n/a PDS3 (MPO 1688)  

15735 Andakerkhoven           Discovered 1990 Nov. 18 by E. W. Elst at the European Southern Observatory.
Melisande T. M. "Anda" Kerkhoven (1919-1945), a medical student at Groningen University, was active in the Dutch Resistance during World War II. Providing help and shelter for allied aircraft pilots, she was finally captured and shot by Dutch Nazi collaborators.
NOTE: some special characters may not display properly (any characters within {} are an attempt to place the proper accent above a character)
Reference: 20080618/MPCPages.arcLast Updated: 2008-06-20

Alternate Designations
 1990 WF2 = 1988 PD3 = 1999 JR82 
Ephemeris | Orbit Diagram | Orbital Elements | Physical Parameters | Discovery Circumstances ]
ABOUT SSD CREDITS/AWARDS PRIVACY/COPYRIGHT GLOSSARY LINKS
FirstGov 2013-Jun-19 07:02 UT
(server date/time)  
NASA Home Page
Site Manager:   Donald K. Yeomans
Webmaster  Alan B. Chamberlin